Location: Newark
(15.4608°S, 41.1635°W)
Time: 09:02:59
(UTC+00:00)

Vanguard 3 - Pass Details

Date: 01 August 2021
Orbit: 510 x 3260 km, 33.3° (Epoch: 22 September)

Event Time Altitude Azimuth Distance (km) Brightness Sun altitude
Rises 15:30:41 0° 245° (WSW) 2,926 10.0 55.3°
Reaches altitude 10° 15:32:37 10° 249° (WSW) 2,176 9.5 55.2°
Maximum altitude 15:37:31 62° 329° (NNW) 1,063 10.3 54.8°
Drops below altitude 10° 15:45:53 10° 48° (NE) 3,635 10.8 54.1°
Sets 15:50:01 0° 51° (NE) 5,091 11.3 53.7°
